Year,Month,Day,Hour,Minute,Value (Times are PST for temperature in C)
2009,07,28,00,00,27.90
2009,07,28,00,01,27.90
2009,07,28,00,02,27.90
2009,07,28,00,03,27.90
2009,07,28,00,04,27.90
2009,07,28,00,05,27.90
2009,07,28,00,06,27.90
2009,07,28,00,07,27.90
2009,07,28,00,08,27.90
2009,07,28,00,09,27.90
2009,07,28,00,10,27.90
2009,07,28,00,11,28.00
2009,07,28,00,12,28.00
2009,07,28,00,13,28.10
2009,07,28,00,14,28.10
2009,07,28,00,15,28.20
2009,07,28,00,16,28.20
2009,07,28,00,17,28.20
2009,07,28,00,18,28.20
2009,07,28,00,19,28.30
2009,07,28,00,20,28.30
2009,07,28,00,21,28.20
2009,07,28,00,22,28.20
2009,07,28,00,23,28.20
2009,07,28,00,24,28.20
2009,07,28,00,25,28.10
2009,07,28,00,26,28.10
2009,07,28,00,27,28.10
2009,07,28,00,28,28.10
2009,07,28,00,29,28.10
2009,07,28,00,30,28.10
2009,07,28,00,31,28.10
2009,07,28,00,32,28.00
2009,07,28,00,33,28.00
2009,07,28,00,34,27.90
2009,07,28,00,35,27.90
2009,07,28,00,36,27.90
2009,07,28,00,37,27.80
2009,07,28,00,38,27.80
2009,07,28,00,39,27.80
2009,07,28,00,40,27.80
2009,07,28,00,41,27.70
2009,07,28,00,42,27.70
2009,07,28,00,43,27.70
2009,07,28,00,44,27.70
2009,07,28,00,45,27.60
2009,07,28,00,46,27.60
2009,07,28,00,47,27.60
2009,07,28,00,48,27.60
2009,07,28,00,49,27.50
2009,07,28,00,50,27.50
2009,07,28,00,51,27.50
2009,07,28,00,52,27.50
2009,07,28,00,53,27.40
2009,07,28,00,54,27.40
2009,07,28,00,55,27.40
2009,07,28,00,56,27.40
2009,07,28,00,57,27.30
2009,07,28,00,58,27.30
2009,07,28,00,59,27.30
2009,07,28,01,00,27.30
2009,07,28,01,01,27.30
2009,07,28,01,02,27.20
2009,07,28,01,03,27.20
2009,07,28,01,04,27.20
2009,07,28,01,05,27.20
2009,07,28,01,06,27.10
2009,07,28,01,07,27.10
2009,07,28,01,08,27.10
2009,07,28,01,09,27.00
2009,07,28,01,10,27.00
2009,07,28,01,11,27.00
2009,07,28,01,12,27.00
2009,07,28,01,13,26.90
2009,07,28,01,14,26.90
2009,07,28,01,15,26.90
2009,07,28,01,16,26.80
2009,07,28,01,17,26.80
2009,07,28,01,18,26.80
2009,07,28,01,19,26.80
2009,07,28,01,20,26.80
2009,07,28,01,21,26.70
2009,07,28,01,22,26.70
2009,07,28,01,23,26.70
2009,07,28,01,24,26.70
2009,07,28,01,25,26.60
2009,07,28,01,26,26.60
2009,07,28,01,27,26.60
2009,07,28,01,28,26.60
2009,07,28,01,29,26.60
2009,07,28,01,30,26.50
2009,07,28,01,31,26.50
2009,07,28,01,32,26.50
2009,07,28,01,33,26.40
2009,07,28,01,34,26.40
2009,07,28,01,35,26.40
2009,07,28,01,36,26.40
2009,07,28,01,37,26.30
2009,07,28,01,38,26.30
2009,07,28,01,39,26.30
2009,07,28,01,40,26.30
2009,07,28,01,41,26.30
2009,07,28,01,42,26.20
2009,07,28,01,43,26.20
2009,07,28,01,44,26.20
2009,07,28,01,45,26.20
2009,07,28,01,46,26.20
2009,07,28,01,47,26.10
2009,07,28,01,48,26.10
2009,07,28,01,49,26.10
2009,07,28,01,50,26.10
2009,07,28,01,51,26.10
2009,07,28,01,52,26.10
2009,07,28,01,53,26.10
2009,07,28,01,54,26.10
2009,07,28,01,55,26.10
2009,07,28,01,56,26.10
2009,07,28,01,57,26.20
2009,07,28,01,58,26.20
2009,07,28,01,59,26.20
2009,07,28,02,00,26.20
2009,07,28,02,01,26.20
2009,07,28,02,02,26.20
2009,07,28,02,03,26.20
2009,07,28,02,04,26.20
2009,07,28,02,05,26.20
2009,07,28,02,06,26.20
2009,07,28,02,07,26.20
2009,07,28,02,08,26.20
2009,07,28,02,09,26.20
2009,07,28,02,10,26.10
2009,07,28,02,11,26.10
2009,07,28,02,12,26.10
2009,07,28,02,13,26.10
2009,07,28,02,14,26.10
2009,07,28,02,15,26.10
2009,07,28,02,16,26.10
2009,07,28,02,17,26.10
2009,07,28,02,18,26.00
2009,07,28,02,19,26.00
2009,07,28,02,20,26.00
2009,07,28,02,21,26.00
2009,07,28,02,22,26.00
2009,07,28,02,23,26.00
2009,07,28,02,24,25.90
2009,07,28,02,25,25.90
2009,07,28,02,26,25.90
2009,07,28,02,27,25.90
2009,07,28,02,28,25.90
2009,07,28,02,29,25.80
2009,07,28,02,30,25.70
2009,07,28,02,31,25.70
2009,07,28,02,32,25.70
2009,07,28,02,33,25.60
2009,07,28,02,34,25.50
2009,07,28,02,35,25.40
2009,07,28,02,36,25.40
2009,07,28,02,37,25.40
2009,07,28,02,38,25.30
2009,07,28,02,39,25.30
2009,07,28,02,40,25.30
2009,07,28,02,41,25.20
2009,07,28,02,42,25.20
2009,07,28,02,43,25.20
2009,07,28,02,44,25.20
2009,07,28,02,45,25.20
2009,07,28,02,46,25.20
2009,07,28,02,47,25.10
2009,07,28,02,48,25.10
2009,07,28,02,49,25.10
2009,07,28,02,50,25.10
2009,07,28,02,51,25.10
2009,07,28,02,52,25.10
2009,07,28,02,53,25.00
2009,07,28,02,54,25.00
2009,07,28,02,55,25.00
2009,07,28,02,56,25.00
2009,07,28,02,57,25.00
2009,07,28,02,58,25.00
2009,07,28,02,59,25.00
2009,07,28,03,00,24.90
2009,07,28,03,01,24.90
2009,07,28,03,02,24.90
2009,07,28,03,03,24.90
2009,07,28,03,04,24.90
2009,07,28,03,05,24.80
2009,07,28,03,06,24.80
2009,07,28,03,07,24.80
2009,07,28,03,08,24.80
2009,07,28,03,09,24.80
2009,07,28,03,10,24.80
2009,07,28,03,11,24.80
2009,07,28,03,12,24.80
2009,07,28,03,13,24.80
2009,07,28,03,14,24.80
2009,07,28,03,15,24.80
2009,07,28,03,16,24.80
2009,07,28,03,17,24.80
2009,07,28,03,18,24.80
2009,07,28,03,19,24.70
2009,07,28,03,20,24.70
2009,07,28,03,21,24.70
2009,07,28,03,22,24.70
2009,07,28,03,23,24.70
2009,07,28,03,24,24.70
2009,07,28,03,25,24.70
2009,07,28,03,26,24.60
2009,07,28,03,27,24.60
2009,07,28,03,28,24.60
2009,07,28,03,29,24.60
2009,07,28,03,30,24.60
2009,07,28,03,31,24.60
2009,07,28,03,32,24.60
2009,07,28,03,33,24.60
2009,07,28,03,34,24.60
2009,07,28,03,35,24.60
2009,07,28,03,36,24.60
2009,07,28,03,37,24.60
2009,07,28,03,38,24.60
2009,07,28,03,39,24.60
2009,07,28,03,40,24.60
2009,07,28,03,41,24.60
2009,07,28,03,42,24.60
2009,07,28,03,43,24.60
2009,07,28,03,44,24.60
2009,07,28,03,45,24.60
2009,07,28,03,46,24.60
2009,07,28,03,47,24.60
2009,07,28,03,48,24.60
2009,07,28,03,49,24.50
2009,07,28,03,50,24.50
2009,07,28,03,51,24.50
2009,07,28,03,52,24.50
2009,07,28,03,53,24.50
2009,07,28,03,54,24.50
2009,07,28,03,55,24.50
2009,07,28,03,56,24.40
2009,07,28,03,57,24.40
2009,07,28,03,58,24.40
2009,07,28,03,59,24.40
2009,07,28,04,00,24.40
2009,07,28,04,01,24.40
2009,07,28,04,02,24.40
2009,07,28,04,03,24.40
2009,07,28,04,04,24.40
2009,07,28,04,05,24.40
2009,07,28,04,06,24.40
2009,07,28,04,07,24.30
2009,07,28,04,08,24.30
2009,07,28,04,09,24.30
2009,07,28,04,10,24.30
2009,07,28,04,11,24.30
2009,07,28,04,12,24.30
2009,07,28,04,13,24.30
2009,07,28,04,14,24.30
2009,07,28,04,15,24.30
2009,07,28,04,16,24.30
2009,07,28,04,17,24.30
2009,07,28,04,18,24.30
2009,07,28,04,19,24.30
2009,07,28,04,20,24.30
2009,07,28,04,21,24.30
2009,07,28,04,22,24.30
2009,07,28,04,23,24.30
2009,07,28,04,24,24.30
2009,07,28,04,25,24.30
2009,07,28,04,26,24.30
2009,07,28,04,27,24.30
2009,07,28,04,28,24.30
2009,07,28,04,29,24.30
2009,07,28,04,30,24.30
2009,07,28,04,31,24.30
2009,07,28,04,32,24.30
2009,07,28,04,33,24.30
2009,07,28,04,34,24.30
2009,07,28,04,35,24.30
2009,07,28,04,36,24.30
2009,07,28,04,37,24.30
2009,07,28,04,38,24.30
2009,07,28,04,39,24.30
2009,07,28,04,40,24.30
2009,07,28,04,41,24.30
2009,07,28,04,42,24.30
2009,07,28,04,43,24.20
2009,07,28,04,44,24.10
2009,07,28,04,45,24.10
2009,07,28,04,46,24.00
2009,07,28,04,47,24.00
2009,07,28,04,48,23.90
2009,07,28,04,49,23.80
2009,07,28,04,50,23.80
2009,07,28,04,51,23.70
2009,07,28,04,52,23.60
2009,07,28,04,53,23.60
2009,07,28,04,54,23.50
2009,07,28,04,55,23.40
2009,07,28,04,56,23.40
2009,07,28,04,57,23.30
2009,07,28,04,58,23.30
2009,07,28,04,59,23.20
2009,07,28,05,00,23.20
2009,07,28,05,01,23.20
2009,07,28,05,02,23.10
2009,07,28,05,03,23.10
2009,07,28,05,04,23.10
2009,07,28,05,05,23.00
2009,07,28,05,06,23.00
2009,07,28,05,07,23.00
2009,07,28,05,08,22.90
2009,07,28,05,09,22.90
2009,07,28,05,10,22.90
2009,07,28,05,11,22.90
2009,07,28,05,12,22.90
2009,07,28,05,13,22.80
2009,07,28,05,14,22.80
2009,07,28,05,15,22.80
2009,07,28,05,16,22.80
2009,07,28,05,17,22.80
2009,07,28,05,18,22.70
2009,07,28,05,19,22.70
2009,07,28,05,20,22.70
2009,07,28,05,21,22.70
2009,07,28,05,22,22.60
2009,07,28,05,23,22.60
2009,07,28,05,24,22.60
2009,07,28,05,25,22.60
2009,07,28,05,26,22.50
2009,07,28,05,27,22.50
2009,07,28,05,28,22.50
2009,07,28,05,29,22.40
2009,07,28,05,30,22.40
2009,07,28,05,31,22.30
2009,07,28,05,32,22.30
2009,07,28,05,33,22.30
2009,07,28,05,34,22.20
2009,07,28,05,35,22.20
2009,07,28,05,36,22.20
2009,07,28,05,37,22.10
2009,07,28,05,38,22.10
2009,07,28,05,39,22.10
2009,07,28,05,40,22.00
2009,07,28,05,41,22.00
2009,07,28,05,42,22.00
2009,07,28,05,43,21.90
2009,07,28,05,44,21.90
2009,07,28,05,45,21.90
2009,07,28,05,46,21.90
2009,07,28,05,47,21.90
2009,07,28,05,48,21.90
2009,07,28,05,49,21.90
2009,07,28,05,50,21.80
2009,07,28,05,51,21.80
2009,07,28,05,52,21.80
2009,07,28,05,53,21.80
2009,07,28,05,54,21.90
2009,07,28,05,55,21.90
2009,07,28,05,56,21.90
2009,07,28,05,57,21.90
2009,07,28,05,58,21.90
2009,07,28,05,59,22.00
2009,07,28,06,00,22.00
2009,07,28,06,01,22.00
2009,07,28,06,02,22.00
2009,07,28,06,03,22.10
2009,07,28,06,04,22.10
2009,07,28,06,05,22.10
2009,07,28,06,06,22.10
2009,07,28,06,07,22.10
2009,07,28,06,08,22.20
2009,07,28,06,09,22.20
2009,07,28,06,10,22.20
2009,07,28,06,11,22.20
2009,07,28,06,12,22.20
2009,07,28,06,13,22.20
2009,07,28,06,14,22.20
2009,07,28,06,15,22.20
2009,07,28,06,16,22.20
2009,07,28,06,17,22.30
2009,07,28,06,18,22.30
2009,07,28,06,19,22.30
2009,07,28,06,20,22.40
2009,07,28,06,21,22.40
2009,07,28,06,22,22.40
2009,07,28,06,23,22.40
2009,07,28,06,24,22.50
2009,07,28,06,25,22.50
2009,07,28,06,26,22.60
2009,07,28,06,27,22.60
2009,07,28,06,28,22.60
2009,07,28,06,29,22.60
2009,07,28,06,30,22.60
2009,07,28,06,31,22.60
2009,07,28,06,32,22.60
2009,07,28,06,33,22.60
2009,07,28,06,34,22.60
2009,07,28,06,35,22.60
2009,07,28,06,36,22.60
2009,07,28,06,37,22.60
2009,07,28,06,38,22.60
2009,07,28,06,39,22.60
2009,07,28,06,40,22.60
2009,07,28,06,41,22.70
2009,07,28,06,42,22.70
2009,07,28,06,43,22.70
2009,07,28,06,44,22.70
2009,07,28,06,45,22.70
2009,07,28,06,46,22.70
2009,07,28,06,47,22.70
2009,07,28,06,48,22.70
2009,07,28,06,49,22.70
2009,07,28,06,50,22.70
2009,07,28,06,51,22.70
2009,07,28,06,52,22.70
2009,07,28,06,53,22.70
2009,07,28,06,54,22.70
2009,07,28,06,55,22.80
2009,07,28,06,56,22.80
2009,07,28,06,57,22.80
2009,07,28,06,58,22.80
2009,07,28,06,59,22.80
2009,07,28,07,00,22.80
2009,07,28,07,01,22.80
2009,07,28,07,02,22.90
2009,07,28,07,03,22.90
2009,07,28,07,04,22.90
2009,07,28,07,05,22.90
2009,07,28,07,06,23.00
2009,07,28,07,07,23.00
2009,07,28,07,08,23.10
2009,07,28,07,09,23.10
2009,07,28,07,10,23.10
2009,07,28,07,11,23.20
2009,07,28,07,12,23.20
2009,07,28,07,13,23.30
2009,07,28,07,14,23.30
2009,07,28,07,15,23.30
2009,07,28,07,16,23.40
2009,07,28,07,17,23.40
2009,07,28,07,18,23.40
2009,07,28,07,19,23.50
2009,07,28,07,20,23.60
2009,07,28,07,21,23.60
2009,07,28,07,22,23.70
2009,07,28,07,23,23.70
2009,07,28,07,24,23.80
2009,07,28,07,25,23.80
2009,07,28,07,26,23.80
2009,07,28,07,27,23.80
2009,07,28,07,28,23.90
2009,07,28,07,29,23.90
2009,07,28,07,30,23.90
2009,07,28,07,31,23.90
2009,07,28,07,32,23.90
2009,07,28,07,33,23.90
2009,07,28,07,34,23.90
2009,07,28,07,35,23.90
2009,07,28,07,36,23.90
2009,07,28,07,37,23.90
2009,07,28,07,38,23.90
2009,07,28,07,39,23.90
2009,07,28,07,40,24.00
2009,07,28,07,41,24.00
2009,07,28,07,42,24.00
2009,07,28,07,43,24.00
2009,07,28,07,44,24.00
2009,07,28,07,45,24.00
2009,07,28,07,46,24.00
2009,07,28,07,47,24.10
2009,07,28,07,48,24.10
2009,07,28,07,49,24.10
2009,07,28,07,50,24.10
2009,07,28,07,51,24.20
2009,07,28,07,52,24.20
2009,07,28,07,53,24.20
2009,07,28,07,54,24.30
2009,07,28,07,55,24.30
2009,07,28,07,56,24.30
2009,07,28,07,57,24.40
2009,07,28,07,58,24.40
2009,07,28,07,59,24.40
2009,07,28,08,00,24.50
2009,07,28,08,01,24.50
2009,07,28,08,02,24.60
2009,07,28,08,03,24.60
2009,07,28,08,04,24.70
2009,07,28,08,05,24.70
2009,07,28,08,06,24.80
2009,07,28,08,07,24.80
2009,07,28,08,08,24.90
2009,07,28,08,09,25.00
2009,07,28,08,10,25.00
2009,07,28,08,11,25.10
2009,07,28,08,12,25.20
2009,07,28,08,13,25.20
2009,07,28,08,14,25.30
2009,07,28,08,15,25.30
2009,07,28,08,16,25.40
2009,07,28,08,17,25.40
2009,07,28,08,18,25.50
2009,07,28,08,19,25.50
2009,07,28,08,20,25.50
2009,07,28,08,21,25.50
2009,07,28,08,22,25.60
2009,07,28,08,23,25.60
2009,07,28,08,24,25.60
2009,07,28,08,25,25.60
2009,07,28,08,26,25.60
2009,07,28,08,27,25.60
2009,07,28,08,28,25.60
2009,07,28,08,29,25.60
2009,07,28,08,30,25.70
2009,07,28,08,31,25.70
2009,07,28,08,32,25.70
2009,07,28,08,33,25.70
2009,07,28,08,34,25.70
2009,07,28,08,35,25.80
2009,07,28,08,36,25.80
2009,07,28,08,37,25.80
2009,07,28,08,38,25.80
2009,07,28,08,39,25.90
2009,07,28,08,40,25.90
2009,07,28,08,41,25.90
2009,07,28,08,42,25.90
2009,07,28,08,43,25.90
2009,07,28,08,44,25.90
2009,07,28,08,45,25.90
2009,07,28,08,46,25.90
2009,07,28,08,47,25.90
2009,07,28,08,48,25.80
2009,07,28,08,49,25.80
2009,07,28,08,50,25.80
2009,07,28,08,51,25.70
2009,07,28,08,52,25.70
2009,07,28,08,53,25.60
2009,07,28,08,54,25.60
2009,07,28,08,55,25.60
2009,07,28,08,56,25.50
2009,07,28,08,57,25.50
2009,07,28,08,58,25.40
2009,07,28,08,59,25.30
2009,07,28,09,00,25.30
2009,07,28,09,01,25.20
2009,07,28,09,02,25.20
2009,07,28,09,03,25.20
2009,07,28,09,04,25.20
2009,07,28,09,05,25.20
2009,07,28,09,06,25.30
2009,07,28,09,07,25.30
2009,07,28,09,08,25.40
2009,07,28,09,09,25.40
2009,07,28,09,10,25.30
2009,07,28,09,11,25.30
2009,07,28,09,12,25.30
2009,07,28,09,13,25.30
2009,07,28,09,14,25.30
2009,07,28,09,15,25.30
2009,07,28,09,16,25.20
2009,07,28,09,17,25.20
2009,07,28,09,18,25.20
2009,07,28,09,19,25.20
2009,07,28,09,20,25.30
2009,07,28,09,21,25.30
2009,07,28,09,22,25.40
2009,07,28,09,23,25.40
2009,07,28,09,24,25.50
2009,07,28,09,25,25.60
2009,07,28,09,26,25.60
2009,07,28,09,27,25.70
2009,07,28,09,28,25.80
2009,07,28,09,29,25.90
2009,07,28,09,30,26.00
2009,07,28,09,31,26.10
2009,07,28,09,32,26.20
2009,07,28,09,33,26.20
2009,07,28,09,34,26.30
2009,07,28,09,35,26.30
2009,07,28,09,36,26.30
2009,07,28,09,37,26.30
2009,07,28,09,38,26.20
2009,07,28,09,39,26.20
2009,07,28,09,40,26.30
2009,07,28,09,41,26.30
2009,07,28,09,42,26.30
2009,07,28,09,43,26.40
2009,07,28,09,44,26.40
2009,07,28,09,45,26.50
2009,07,28,09,46,26.60
2009,07,28,09,47,26.60
2009,07,28,09,48,26.70
2009,07,28,09,49,26.80
2009,07,28,09,50,26.80
2009,07,28,09,51,26.80
2009,07,28,09,52,26.80
2009,07,28,09,53,26.80
2009,07,28,09,54,26.90
2009,07,28,09,55,26.90
2009,07,28,09,56,26.90
2009,07,28,09,57,26.90
2009,07,28,09,58,26.90
2009,07,28,09,59,26.90
2009,07,28,10,00,26.90
2009,07,28,10,01,26.90
2009,07,28,10,02,26.90
2009,07,28,10,03,26.90
2009,07,28,10,04,26.90
2009,07,28,10,05,26.90
2009,07,28,10,06,27.00
2009,07,28,10,07,26.90
2009,07,28,10,08,26.90
2009,07,28,10,09,26.90
2009,07,28,10,10,27.00
2009,07,28,10,11,27.00
2009,07,28,10,12,27.10
2009,07,28,10,13,27.10
2009,07,28,10,14,27.20
2009,07,28,10,15,27.30
2009,07,28,10,16,27.30
2009,07,28,10,17,27.30
2009,07,28,10,18,27.30
2009,07,28,10,19,27.30
2009,07,28,10,20,27.30
2009,07,28,10,21,27.30
2009,07,28,10,22,27.30
2009,07,28,10,23,27.30
2009,07,28,10,24,27.30
2009,07,28,10,25,27.40
2009,07,28,10,26,27.40
2009,07,28,10,27,27.40
2009,07,28,10,28,27.50
2009,07,28,10,29,27.50
2009,07,28,10,30,27.50
2009,07,28,10,31,27.50
2009,07,28,10,32,27.60
2009,07,28,10,33,27.60
2009,07,28,10,34,27.60
2009,07,28,10,35,27.60
2009,07,28,10,36,27.70
2009,07,28,10,37,27.80
2009,07,28,10,38,27.80
2009,07,28,10,39,27.80
2009,07,28,10,40,27.80
2009,07,28,10,41,27.90
2009,07,28,10,42,27.90
2009,07,28,10,43,27.90
2009,07,28,10,44,27.90
2009,07,28,10,45,28.00
2009,07,28,10,46,28.00
2009,07,28,10,47,28.10
2009,07,28,10,48,28.00
2009,07,28,10,49,28.00
2009,07,28,10,50,28.10
2009,07,28,10,51,28.10
2009,07,28,10,52,28.20
2009,07,28,10,53,28.20
2009,07,28,10,54,28.30
2009,07,28,10,55,28.30
2009,07,28,10,56,28.30
2009,07,28,10,57,28.30
2009,07,28,10,58,28.40
2009,07,28,10,59,28.40
2009,07,28,11,00,28.50
2009,07,28,11,01,28.50
2009,07,28,11,02,28.60
2009,07,28,11,03,28.70
2009,07,28,11,04,28.70
2009,07,28,11,05,28.80
2009,07,28,11,06,28.80
2009,07,28,11,07,28.90
2009,07,28,11,08,28.90
2009,07,28,11,09,29.00
2009,07,28,11,10,29.10
2009,07,28,11,11,29.10
2009,07,28,11,12,29.20
2009,07,28,11,13,29.20
2009,07,28,11,14,29.10
2009,07,28,11,15,29.00
2009,07,28,11,16,29.00
2009,07,28,11,17,28.90
2009,07,28,11,18,28.70
2009,07,28,11,19,28.70
2009,07,28,11,20,28.60
2009,07,28,11,21,28.60
2009,07,28,11,22,28.60
2009,07,28,11,23,28.60
2009,07,28,11,24,28.60
2009,07,28,11,25,28.70
2009,07,28,11,26,28.70
2009,07,28,11,27,28.70
2009,07,28,11,28,28.80
2009,07,28,11,29,28.70
2009,07,28,11,30,28.70
2009,07,28,11,31,28.70
2009,07,28,11,32,28.60
2009,07,28,11,33,28.60
2009,07,28,11,34,28.50
2009,07,28,11,35,28.40
2009,07,28,11,36,28.30
2009,07,28,11,37,28.30
2009,07,28,11,38,28.20
2009,07,28,11,39,28.20
2009,07,28,11,40,28.20
2009,07,28,11,41,28.20
2009,07,28,11,42,28.20
2009,07,28,11,43,28.20
2009,07,28,11,44,28.30
2009,07,28,11,45,28.30
2009,07,28,11,46,28.30
2009,07,28,11,47,28.30
2009,07,28,11,48,28.30
2009,07,28,11,49,28.40
2009,07,28,11,50,28.40
2009,07,28,11,51,28.40
2009,07,28,11,52,28.40
2009,07,28,11,53,28.30
2009,07,28,11,54,28.30
2009,07,28,11,55,28.20
2009,07,28,11,56,28.20
2009,07,28,11,57,28.20
2009,07,28,11,58,28.20
2009,07,28,11,59,28.20
2009,07,28,12,00,28.30
2009,07,28,12,01,28.30
2009,07,28,12,02,28.30
2009,07,28,12,03,28.30
2009,07,28,12,04,28.30
2009,07,28,12,05,28.40
2009,07,28,12,06,28.40
2009,07,28,12,07,28.50
2009,07,28,12,08,28.50
2009,07,28,12,09,28.60
2009,07,28,12,10,28.60
2009,07,28,12,11,28.60
2009,07,28,12,12,28.60
2009,07,28,12,13,28.60
2009,07,28,12,14,28.60
2009,07,28,12,15,28.60
2009,07,28,12,16,28.70
2009,07,28,12,17,28.70
2009,07,28,12,18,28.70
2009,07,28,12,19,28.80
2009,07,28,12,20,28.90
2009,07,28,12,21,28.80
2009,07,28,12,22,28.80
2009,07,28,12,23,28.80
2009,07,28,12,24,28.80
2009,07,28,12,25,28.90
2009,07,28,12,26,29.00
2009,07,28,12,27,29.10
2009,07,28,12,28,29.20
2009,07,28,12,29,29.30
2009,07,28,12,30,29.40
2009,07,28,12,31,29.40
2009,07,28,12,32,29.40
2009,07,28,12,33,29.50
2009,07,28,12,34,29.50
2009,07,28,12,35,29.60
2009,07,28,12,36,29.70
2009,07,28,12,37,29.70
2009,07,28,12,38,29.60
2009,07,28,12,39,29.50
2009,07,28,12,40,29.50
2009,07,28,12,41,29.40
2009,07,28,12,42,29.40
2009,07,28,12,43,29.40
2009,07,28,12,44,29.50
2009,07,28,12,45,29.60
2009,07,28,12,46,29.60
2009,07,28,12,47,29.60
2009,07,28,12,48,29.70
2009,07,28,12,49,29.80
2009,07,28,12,50,29.90
2009,07,28,12,51,30.10
2009,07,28,12,52,30.20
2009,07,28,12,53,30.40
2009,07,28,12,54,30.60
2009,07,28,12,55,30.70
2009,07,28,12,56,30.80
2009,07,28,12,57,30.80
2009,07,28,12,58,30.80
2009,07,28,12,59,30.90
2009,07,28,13,00,30.90
2009,07,28,13,01,31.00
2009,07,28,13,02,31.10
2009,07,28,13,03,31.10
2009,07,28,13,04,31.20
2009,07,28,13,05,31.20
2009,07,28,13,06,31.20
2009,07,28,13,07,31.20
2009,07,28,13,08,31.20
2009,07,28,13,09,31.20
2009,07,28,13,10,31.20
2009,07,28,13,11,31.20
2009,07,28,13,12,31.10
2009,07,28,13,13,31.10
2009,07,28,13,14,31.00
2009,07,28,13,15,31.00
2009,07,28,13,16,31.00
2009,07,28,13,17,31.10
2009,07,28,13,18,31.20
2009,07,28,13,19,31.30
2009,07,28,13,20,31.40
2009,07,28,13,21,31.40
2009,07,28,13,22,31.50
2009,07,28,13,23,31.50
2009,07,28,13,24,31.50
2009,07,28,13,25,31.50
2009,07,28,13,26,31.60
2009,07,28,13,27,31.60
2009,07,28,13,28,31.70
2009,07,28,13,29,31.80
2009,07,28,13,30,31.80
2009,07,28,13,31,31.80
2009,07,28,13,32,31.80
2009,07,28,13,33,31.80
2009,07,28,13,34,31.80
2009,07,28,13,35,31.80
2009,07,28,13,36,31.90
2009,07,28,13,37,31.90
2009,07,28,13,38,31.90
2009,07,28,13,39,32.00
2009,07,28,13,40,32.00
2009,07,28,13,41,32.00
2009,07,28,13,42,32.10
2009,07,28,13,43,32.10
2009,07,28,13,44,32.20
2009,07,28,13,45,32.20
2009,07,28,13,46,32.30
2009,07,28,13,47,32.30
2009,07,28,13,48,32.30
2009,07,28,13,49,32.30
2009,07,28,13,50,32.30
2009,07,28,13,51,32.30
2009,07,28,13,52,32.30
2009,07,28,13,53,32.30
2009,07,28,13,54,32.40
2009,07,28,13,55,32.40
2009,07,28,13,56,32.30
2009,07,28,13,57,32.30
2009,07,28,13,58,32.30
2009,07,28,13,59,32.40
2009,07,28,14,00,32.40
2009,07,28,14,01,32.40
2009,07,28,14,02,32.50
2009,07,28,14,03,32.50
2009,07,28,14,04,32.60
2009,07,28,14,05,32.70
2009,07,28,14,06,32.70
2009,07,28,14,07,32.80
2009,07,28,14,08,32.80
2009,07,28,14,09,32.70
2009,07,28,14,10,32.70
2009,07,28,14,11,32.70
2009,07,28,14,12,32.70
2009,07,28,14,13,32.60
2009,07,28,14,14,32.60
2009,07,28,14,15,32.50
2009,07,28,14,16,32.50
2009,07,28,14,17,32.60
2009,07,28,14,18,32.70
2009,07,28,14,19,32.80
2009,07,28,14,20,33.00
2009,07,28,14,21,33.10
2009,07,28,14,22,33.10
2009,07,28,14,23,33.10
2009,07,28,14,24,33.00
2009,07,28,14,25,33.00
2009,07,28,14,26,32.90
2009,07,28,14,27,32.90
2009,07,28,14,28,32.90
2009,07,28,14,29,32.90
2009,07,28,14,30,32.80
2009,07,28,14,31,32.80
2009,07,28,14,32,32.90
2009,07,28,14,33,33.00
2009,07,28,14,34,33.10
2009,07,28,14,35,33.20
2009,07,28,14,36,33.30
2009,07,28,14,37,33.30
2009,07,28,14,38,33.30
2009,07,28,14,39,33.30
2009,07,28,14,40,33.30
2009,07,28,14,41,33.30
2009,07,28,14,42,33.20
2009,07,28,14,43,33.20
2009,07,28,14,44,33.10
2009,07,28,14,45,33.00
2009,07,28,14,46,33.00
2009,07,28,14,47,32.90
2009,07,28,14,48,33.00
2009,07,28,14,49,33.00
2009,07,28,14,50,32.90
2009,07,28,14,51,32.90
2009,07,28,14,52,32.80
2009,07,28,14,53,32.80
2009,07,28,14,54,32.70
2009,07,28,14,55,32.70
2009,07,28,14,56,32.70
2009,07,28,14,57,32.70
2009,07,28,14,58,32.80
2009,07,28,14,59,32.80
2009,07,28,15,00,32.90
2009,07,28,15,01,32.90
2009,07,28,15,02,33.00
2009,07,28,15,03,33.00
2009,07,28,15,04,33.10
2009,07,28,15,05,33.20
2009,07,28,15,06,33.20
2009,07,28,15,07,33.20
2009,07,28,15,08,33.00
2009,07,28,15,09,32.90
2009,07,28,15,10,32.80
2009,07,28,15,11,32.60
2009,07,28,15,12,32.60
2009,07,28,15,13,32.50
2009,07,28,15,14,32.50
2009,07,28,15,15,32.50
2009,07,28,15,16,32.50
2009,07,28,15,17,32.50
2009,07,28,15,18,32.50
2009,07,28,15,19,32.60
2009,07,28,15,20,32.60
2009,07,28,15,21,32.60
2009,07,28,15,22,32.60
2009,07,28,15,23,32.60
2009,07,28,15,24,32.60
2009,07,28,15,25,32.60
2009,07,28,15,26,32.70
2009,07,28,15,27,32.80
2009,07,28,15,28,32.80
2009,07,28,15,29,32.80
2009,07,28,15,30,32.90
2009,07,28,15,31,32.90
2009,07,28,15,32,33.00
2009,07,28,15,33,33.00
2009,07,28,15,34,33.10
2009,07,28,15,35,33.20
2009,07,28,15,36,33.30
2009,07,28,15,37,33.20
2009,07,28,15,38,33.20
2009,07,28,15,39,33.20
2009,07,28,15,40,33.20
2009,07,28,15,41,33.20
2009,07,28,15,42,33.20
2009,07,28,15,43,33.20
2009,07,28,15,44,33.20
2009,07,28,15,45,33.20
2009,07,28,15,46,33.20
2009,07,28,15,47,33.20
2009,07,28,15,48,33.20
2009,07,28,15,49,33.30
2009,07,28,15,50,33.30
2009,07,28,15,51,33.30
2009,07,28,15,52,33.30
2009,07,28,15,53,33.30
2009,07,28,15,54,33.30
2009,07,28,15,55,33.30
2009,07,28,15,56,33.30
2009,07,28,15,57,33.30
2009,07,28,15,58,33.30
2009,07,28,15,59,33.40
2009,07,28,16,00,33.50
2009,07,28,16,01,33.60
2009,07,28,16,02,33.60
2009,07,28,16,03,33.70
2009,07,28,16,04,33.80
2009,07,28,16,05,33.80
2009,07,28,16,06,33.80
2009,07,28,16,07,33.80
2009,07,28,16,08,33.80
2009,07,28,16,09,33.80
2009,07,28,16,10,33.80
2009,07,28,16,11,33.70
2009,07,28,16,12,33.60
2009,07,28,16,13,33.50
2009,07,28,16,14,33.40
2009,07,28,16,15,33.40
2009,07,28,16,16,33.40
2009,07,28,16,17,33.50
2009,07,28,16,18,33.50
2009,07,28,16,19,33.60
2009,07,28,16,20,33.70
2009,07,28,16,21,33.70
2009,07,28,16,22,33.70
2009,07,28,16,23,33.60
2009,07,28,16,24,33.60
2009,07,28,16,25,33.60
2009,07,28,16,26,33.60
2009,07,28,16,27,33.70
2009,07,28,16,28,33.70
2009,07,28,16,29,33.80
2009,07,28,16,30,33.80
2009,07,28,16,31,33.90
2009,07,28,16,32,34.00
2009,07,28,16,33,34.10
2009,07,28,16,34,34.10
2009,07,28,16,35,34.20
2009,07,28,16,36,34.20
2009,07,28,16,37,34.30
2009,07,28,16,38,34.30
2009,07,28,16,39,34.30
2009,07,28,16,40,34.40
2009,07,28,16,41,34.40
2009,07,28,16,42,34.40
2009,07,28,16,43,34.40
2009,07,28,16,44,34.50
2009,07,28,16,45,34.50
2009,07,28,16,46,34.50
2009,07,28,16,47,34.60
2009,07,28,16,48,34.60
2009,07,28,16,49,34.60
2009,07,28,16,50,34.50
2009,07,28,16,51,34.40
2009,07,28,16,52,34.50
2009,07,28,16,53,34.50
2009,07,28,16,54,34.50
2009,07,28,16,55,34.60
2009,07,28,16,56,34.60
2009,07,28,16,57,34.60
2009,07,28,16,58,34.60
2009,07,28,16,59,34.60
2009,07,28,17,00,34.60
2009,07,28,17,01,34.60
2009,07,28,17,02,34.50
2009,07,28,17,03,34.40
2009,07,28,17,04,34.40
2009,07,28,17,05,34.40
2009,07,28,17,06,34.40
2009,07,28,17,07,34.50
2009,07,28,17,08,34.50
2009,07,28,17,09,34.60
2009,07,28,17,10,34.60
2009,07,28,17,11,34.60
2009,07,28,17,12,34.60
2009,07,28,17,13,34.60
2009,07,28,17,14,34.60
2009,07,28,17,15,34.60
2009,07,28,17,16,34.60
2009,07,28,17,17,34.70
2009,07,28,17,18,34.70
2009,07,28,17,19,34.70